CCARS SCQP-SCIE

Flight info

Callsign CCARS
Flight time N/A
Altitude 12000
Route SCQP/01 N0247F120 PUPA2J PUPAR DCT ANGOL ANGO4B SCIE/20
Aircraft C160/M-SDE2E3FGHIJ1RWXY/LB2

Departure

Time 2026-04-18 00:06
Airport La Araucanía International Airport (SCQP)

Arrival

Time N/A
Airport Carriel Sur International Airport (SCIE)
Time Latitude Longitude Altitude Speed Heading
2026-04-17 23:42 -38.92617 -72.64731 312 ft 0 kts 106°
2026-04-17 23:59 -38.92620 -72.64726 312 ft 0 kts 129°
2026-04-17 23:59 -38.92625 -72.64725 312 ft 1 kts 168°
2026-04-17 23:59 -38.92630 -72.64729 310 ft 1 kts 220°
2026-04-17 23:59 -38.92630 -72.64738 310 ft 2 kts 273°
2026-04-18 00:00 -38.92619 -72.64788 311 ft 8 kts 287°
2026-04-18 00:00 -38.92619 -72.64854 312 ft 9 kts 223°
2026-04-18 00:00 -38.92716 -72.64897 312 ft 20 kts 198°
2026-04-18 00:00 -38.92824 -72.64938 312 ft 15 kts 197°
2026-04-18 00:01 -38.92874 -72.65039 312 ft 16 kts 286°
2026-04-18 00:01 -38.92864 -72.65088 312 ft 0 kts 285°
2026-04-18 00:02 -38.92853 -72.65138 309 ft 9 kts 285°
2026-04-18 00:02 -38.92838 -72.65215 312 ft 3 kts 279°
2026-04-18 00:02 -38.92867 -72.65266 313 ft 13 kts 208°
2026-04-18 00:02 -38.92990 -72.65320 313 ft 24 kts 198°
2026-04-18 00:03 -38.93187 -72.65397 310 ft 35 kts 197°
2026-04-18 00:03 -38.93406 -72.65483 309 ft 28 kts 197°
2026-04-18 00:03 -38.93542 -72.65521 310 ft 19 kts 169°
2026-04-18 00:03 -38.93608 -72.65508 311 ft 11 kts 199°
2026-04-18 00:04 -38.93595 -72.65558 309 ft 10 kts
2026-04-18 00:04 -38.93584 -72.65554 310 ft 0 kts 16°
2026-04-18 00:05 -38.93526 -72.65532 310 ft 38 kts 17°
2026-04-18 00:05 -38.93240 -72.65421 310 ft 89 kts 17°
2026-04-18 00:06 -38.92487 -72.65131 450 ft 128 kts 13°
2026-04-18 00:06 -38.91530 -72.64788 646 ft 164 kts 11°
2026-04-18 00:06 -38.90290 -72.64294 571 ft 203 kts 17°
2026-04-18 00:06 -38.88953 -72.63693 944 ft 203 kts 15°
2026-04-18 00:07 -38.87597 -72.63174 1345 ft 203 kts 12°
2026-04-18 00:07 -38.86234 -72.62666 1722 ft 209 kts 13°
2026-04-18 00:07 -38.84817 -72.62087 2104 ft 218 kts 17°
2026-04-18 00:07 -38.83512 -72.61021 2488 ft 228 kts 42°
2026-04-18 00:08 -38.82666 -72.59288 2870 ft 234 kts 69°
2026-04-18 00:08 -38.82468 -72.57213 3269 ft 237 kts 95°
2026-04-18 00:08 -38.82962 -72.55212 3666 ft 237 kts 121°
2026-04-18 00:08 -38.84052 -72.53665 4062 ft 233 kts 147°
2026-04-18 00:09 -38.85514 -72.52865 4458 ft 228 kts 173°
2026-04-18 00:09 -38.87070 -72.52941 4859 ft 222 kts 198°
2026-04-18 00:09 -38.88489 -72.53638 5285 ft 220 kts 206°
2026-04-18 00:09 -38.89951 -72.54234 5710 ft 223 kts 195°
2026-04-18 00:10 -38.91522 -72.54369 6166 ft 228 kts 182°
2026-04-18 00:10 -38.93103 -72.54244 6612 ft 227 kts 180°
2026-04-18 00:10 -38.94680 -72.54187 7032 ft 227 kts 184°
2026-04-18 00:10 -38.96166 -72.54186 7425 ft 227 kts 183°
2026-04-18 00:11 -38.97707 -72.54438 7788 ft 222 kts 205°
2026-04-18 00:11 -38.98853 -72.55677 8155 ft 216 kts 238°
2026-04-18 00:11 -38.99344 -72.57467 8523 ft 215 kts 267°
2026-04-18 00:11 -38.99049 -72.59337 8900 ft 216 kts 295°
2026-04-18 00:12 -38.98208 -72.60913 9304 ft 217 kts 305°
2026-04-18 00:12 -38.97283 -72.62443 9713 ft 217 kts 305°
2026-04-18 00:12 -38.96970 -72.62965 9848 ft 217 kts 305°
2026-04-18 00:12 -38.96918 -72.63053 9873 ft 217 kts 305°